TimeEDT,TemperatureF,Dew PointF,Humidity,Sea Level PressureIn,VisibilityMPH,Wind Direction,Wind SpeedMPH,Gust SpeedMPH,PrecipitationIn,Events,Conditions,WindDirDegrees,DateUTC
12:54 AM,35.1,32.0,89,30.04,10.0,Calm,Calm,-,N/A,,Clear,0,2011-10-22 04:54:00
1:31 AM,35.6,32.0,87,30.03,10.0,WSW,3.5,-,N/A,,Mostly Cloudy,240,2011-10-22 05:31:00
1:54 AM,35.1,32.0,89,30.04,10.0,WSW,3.5,-,N/A,,Mostly Cloudy,240,2011-10-22 05:54:00
2:54 AM,36.0,32.0,86,30.04,10.0,Calm,Calm,-,N/A,,Mostly Cloudy,0,2011-10-22 06:54:00
3:40 AM,35.6,32.0,87,30.03,10.0,Calm,Calm,-,N/A,,Scattered Clouds,0,2011-10-22 07:40:00
3:54 AM,34.0,30.9,89,30.04,10.0,Calm,Calm,-,N/A,,Clear,0,2011-10-22 07:54:00
4:54 AM,28.9,28.0,96,30.05,10.0,Calm,Calm,-,N/A,,Clear,0,2011-10-22 08:54:00
5:54 AM,30.0,28.0,92,30.05,10.0,Calm,Calm,-,N/A,,Clear,0,2011-10-22 09:54:00
6:54 AM,30.9,28.9,92,30.05,10.0,Calm,Calm,-,N/A,,Clear,0,2011-10-22 10:54:00
7:54 AM,30.9,28.9,92,30.05,10.0,Calm,Calm,-,N/A,,Clear,0,2011-10-22 11:54:00
8:54 AM,33.1,30.9,92,30.06,10.0,Calm,Calm,-,N/A,,Clear,0,2011-10-22 12:54:00
9:54 AM,39.9,35.1,83,30.06,10.0,South,4.6,-,N/A,,Clear,190,2011-10-22 13:54:00
10:54 AM,43.0,37.0,80,30.06,10.0,SW,3.5,-,N/A,,Clear,220,2011-10-22 14:54:00
11:54 AM,45.0,37.9,76,30.06,10.0,SW,4.6,-,N/A,,Clear,220,2011-10-22 15:54:00
12:54 PM,51.1,37.0,59,30.04,10.0,SW,3.5,-,N/A,,Clear,230,2011-10-22 16:54:00
1:54 PM,55.0,35.1,47,30.02,10.0,Variable,5.8,-,N/A,,Clear,0,2011-10-22 17:54:00
2:54 PM,55.9,35.1,45,30.01,10.0,Variable,3.5,-,N/A,,Scattered Clouds,0,2011-10-22 18:54:00
3:54 PM,55.0,39.9,57,30.01,10.0,SE,5.8,-,N/A,,Clear,130,2011-10-22 19:54:00
4:54 PM,53.1,42.1,66,30.01,10.0,ESE,8.1,-,N/A,,Clear,110,2011-10-22 20:54:00
5:54 PM,51.1,41.0,68,30.02,10.0,ESE,4.6,-,N/A,,Clear,120,2011-10-22 21:54:00
6:54 PM,45.0,39.9,82,30.04,10.0,Calm,Calm,-,N/A,,Clear,0,2011-10-22 22:54:00
7:54 PM,43.0,41.0,93,30.05,10.0,North,4.6,-,N/A,,Clear,10,2011-10-22 23:54:00
8:54 PM,37.9,37.0,97,30.04,10.0,Calm,Calm,-,N/A,,Clear,0,2011-10-23 00:54:00
9:13 PM,35.6,35.6,100,30.02,1.8,Calm,Calm,-,N/A,,Clear,0,2011-10-23 01:13:00
9:22 PM,37.4,35.6,93,30.02,3.0,Calm,Calm,-,N/A,,Clear,0,2011-10-23 01:22:00
9:54 PM,36.0,35.1,97,30.05,10.0,Calm,Calm,-,N/A,,Clear,0,2011-10-23 01:54:00
10:21 PM,35.6,33.8,93,30.03,10.0,Calm,Calm,-,N/A,,Partly Cloudy,0,2011-10-23 02:21:00
10:54 PM,36.0,34.0,93,30.05,10.0,Calm,Calm,-,N/A,,Clear,0,2011-10-23 02:54:00
11:40 PM,35.6,33.8,93,30.02,7.0,Calm,Calm,-,N/A,,Partly Cloudy,0,2011-10-23 03:40:00
11:54 PM,35.1,33.1,92,30.04,2.0,Calm,Calm,-,N/A,,Partly Cloudy,0,2011-10-23 03:54:00
11:56 PM,35.6,33.8,93,30.01,1.0,Calm,Calm,-,N/A,,Mist,0,2011-10-23 03:56:00
11:59 PM,35.6,33.8,93,30.01,0.8,Calm,Calm,-,N/A,,Mist,0,2011-10-23 03:59:00